[[[{"header":{"parameterUnit":"kt","parameterCategory":2,"dx":1,"dy":1,"la1":30.253999710083008,"la2":30.299108505249023,"lo1":-89.0895004272461,"lo2":-89.04439544677734,"nx":28,"ny":28,"refTime":"2022-10-05T21:00:00:Z","depth":0,"parameterNumber":1,"parameterNumberName":"U-component_of_WINDS"},"data":[4.468,4.4889,4.4932,4.5192,4.5275,4.546,4.5541,4.5649,4.5748,4.5975,4.6114,4.6181,4.6298,4.6476,4.663,4.6657,4.6719,4.6759,4.6784,4.656,4.6532,4.6505,4.6457,4.6772,4.6773,4.701,4.7012,4.7014,4.4507,4.4591,4.4741,4.4917,4.5046,4.5032,4.5171,4.5281,4.5448,4.5571,4.571,4.5915,4.6083,4.619,4.636,4.646,4.6464,4.6503,4.6496,4.6515,4.6277,4.6225,4.6496,4.6496,4.6496,4.6496,4.6496,4.6496,4.4205,4.4329,4.446,4.4624,4.4725,4.4842,4.4969,4.5048,4.5198,4.5379,4.5405,4.5596,4.5729,4.5958,4.6046,4.6197,4.6163,4.622,4.6235,4.6248,4.6256,4.5904,4.6228,4.6228,4.6227,4.6227,4.6226,0,4.3997,4.4025,4.4172,4.4333,4.4456,4.4586,4.4712,4.4792,4.487,4.4991,4.5169,4.528,4.5499,4.5674,4.5844,4.5926,4.5927,4.5933,4.5972,4.5962,4.5929,4.5948,4.5557,4.5923,4.5921,4.5919,4.5918,4.5917,4.3694,4.3835,4.3995,4.4093,4.4173,4.4331,4.4435,4.4493,4.4601,4.4767,4.4875,4.505,4.5193,4.5474,4.5569,4.5734,4.5737,4.5871,4.5762,4.5745,4.5739,4.573,4.5744,4.5891,4.5895,4.5897,4.59,0,4.352,4.3592,4.3824,4.397,4.4011,4.4156,4.4282,4.441,4.4474,4.466,4.4706,4.4809,4.4984,4.5058,4.5275,4.5308,4.5549,4.5547,4.5502,4.5506,4.5633,4.562,4.6037,4.6094,4.5769,4.5772,4.5774,0,4.329,4.3474,4.357,4.3702,4.3907,4.3961,4.4163,4.4238,4.4354,4.4501,4.4513,4.4651,4.4724,4.4873,4.4923,4.5133,4.5174,4.5212,4.5223,4.5211,4.5206,4.5271,4.5256,4.5243,4.5241,4.5239,4.5237,0,4.301,4.3277,4.3491,4.3564,4.3739,4.3839,4.3917,4.4048,4.415,4.4295,4.4362,4.4527,4.4618,4.4746,4.4808,4.4731,4.5067,4.4974,4.5106,4.5105,4.5178,4.5173,4.5522,4.5235,4.5234,4.5233,4.5233,0,4.2836,4.2979,4.3278,4.3424,4.3493,4.3634,4.3799,4.3938,4.4075,4.4115,4.423,4.4248,4.4438,4.434,4.4603,4.4484,4.4574,4.4628,4.4639,4.4661,4.4549,4.4736,4.5061,4.5098,4.4679,4.4675,4.4671,0,4.2494,4.2816,4.2864,4.3149,4.3307,4.3308,4.3468,4.3589,4.3656,4.3801,4.3875,4.4041,4.3984,4.4047,4.4167,4.4251,4.4405,4.4233,4.4444,4.4451,4.4406,4.4706,4.4735,4.4981,4.4613,4.4619,4.4623,0,4.2239,4.245,4.2498,4.2583,4.2752,4.2886,4.3069,4.3245,4.3338,4.3475,4.363,4.3867,4.3833,4.3937,4.397,4.4092,4.4303,4.404,4.4044,4.4084,4.4591,4.4617,4.4658,4.4298,4.4305,4.4311,4.4578,0,4.1959,4.213,4.2261,4.245,4.2565,4.2748,4.2825,4.2936,4.2954,4.302,4.3251,4.3373,4.3555,4.3622,4.3643,4.3898,4.3867,4.383,4.3741,4.3937,4.4027,4.4064,4.36,4.3598,4.3596,4.3595,0,0,4.1614,4.1861,4.1909,4.2088,4.2188,4.2188,4.2376,4.2474,4.2673,4.2743,4.2693,4.3045,4.3148,4.342,4.3487,4.3561,4.3614,4.3544,4.3843,4.3871,4.3896,4.3991,4.4028,4.3592,4.3591,4.359,4.359,0,4.1528,4.1628,4.1813,4.1916,4.207,4.2131,4.2175,4.2329,4.2381,4.2607,4.2606,4.2754,4.3035,4.3143,4.3235,4.3512,4.3504,4.3562,4.3684,4.3822,4.3852,4.3879,4.3977,4.4012,4.3586,4.3586,4.3586,0,4.129,4.1401,4.1499,4.1726,4.1828,4.1992,4.1917,4.2095,4.2218,4.2212,4.2437,4.2517,4.2669,4.2916,4.303,4.2989,4.3399,4.3285,4.3298,4.3313,4.3452,4.3487,4.3519,4.3101,4.3099,4.3097,0,0,4.1205,4.1364,4.1504,4.1713,4.1777,4.1871,4.1967,4.1995,4.213,4.2185,4.2286,4.2419,4.2583,4.269,4.2848,4.3109,4.3145,4.3222,4.3245,4.3263,4.3287,4.3431,4.3466,4.3089,4.3089,4.3089,0,0,4.1166,4.1334,4.1328,4.1581,4.1708,4.1861,4.1987,4.1984,4.2134,4.2122,4.2182,4.222,4.2453,4.2532,4.242,4.2818,4.2729,4.2757,4.2758,4.2788,4.2811,4.2788,4.2362,0,0,0,0,0,4.1117,4.1312,4.1305,4.1359,4.1648,4.1864,4.1902,4.1954,4.1888,4.1986,4.2071,4.2056,4.2483,4.2385,4.2439,4.2564,4.299,4.3008,4.3024,4.3088,4.3118,4.3144,0,0,0,0,0,0,4.1138,4.1204,4.13,4.146,4.1526,4.1857,4.1758,4.1777,4.1879,4.1872,4.204,4.2062,4.2112,4.2361,4.2409,4.2527,4.2346,4.2997,4.3012,4.3026,4.3098,4.3123,4.3145,0,0,0,0,0,4.1156,4.1209,4.1658,4.1458,4.1515,4.1631,4.1751,4.1766,4.1846,4.1978,4.1999,4.1876,4.2114,4.2158,4.239,4.2504,4.2313,4.2331,4.3007,4.3019,4.3029,4.311,0,0,0,0,0,0,4.1169,4.1226,4.1671,4.169,4.1388,4.1613,4.165,4.1757,4.1946,4.1969,4.1816,4.1808,4.2118,4.2151,4.2185,4.2493,4.2286,4.2305,4.2316,4.3016,4.3025,4.3033,0,0,0,0,0,0,4.1197,4.1242,4.1681,4.1589,4.1599,4.1597,4.163,4.1836,4.1949,4.1774,4.1773,4.181,4.2068,4.2147,4.2173,4.2493,4.2266,4.2283,4.2295,4.2303,4.3023,4.3031,0,0,0,0,0,0,4.1217,4.1256,4.1584,4.1592,4.16,4.1821,4.178,4.2074,4.1867,4.1765,4.185,4.1843,4.2065,4.2092,4.2166,4.2474,4.2488,4.2267,4.2278,4.2287,4.2292,0,0,0,0,0,0,0,4.1233,4.0964,4.1556,4.1594,4.16,4.1869,4.1874,4.188,4.1866,4.1859,4.1852,4.1846,4.2168,4.2187,4.2206,4.2459,0,0,4.2265,4.2273,0,0,0,0,0,0,0,0,4.0949,4.0961,4.1556,4.156,4.1564,4.187,4.1874,4.1878,4.1864,4.1859,4.1854,4.1848,4.2173,4.2188,4.2204,0,0,0,0,0,0,0,0,0,0,0,0,0,0,0,4.1557,4.156,0,4.187,4.1874,4.1878,4.1864,4.1859,4.1855,4.1851,4.2178,4.219,4.2203,0,0,0,0,0,0,0,0,0,0,0,0,0,0,0,0,0,0,0,0,0,0,0,0,0,0,0,0,0,0,0,0,0,0,0,0,0,0,0,0,0,0,0,0,0,0,0,0,0,0,0,0,0,0,0,0,0,0,0,0,0,0,0,0,0,0,0,0,0]}],[{"header":{"parameterUnit":"kt","parameterCategory":2,"dx":1,"dy":1,"la1":30.253999710083008,"la2":30.299108505249023,"lo1":-89.0895004272461,"lo2":-89.04439544677734,"nx":28,"ny":28,"refTime":"2022-10-05T21:00:00:Z","depth":0,"parameterNumber":2,"parameterNumberName":"V-component_of_WINDS"},"data":[0.0626,0.0714,0.0733,0.0841,0.0875,0.0952,0.0986,0.103,0.107,0.1162,0.1218,0.1244,0.1291,0.136,0.1421,0.1431,0.1456,0.1473,0.1482,0.1391,0.138,0.1369,0.135,0.1478,0.1478,0.1575,0.1576,0.1576,0.0553,0.0589,0.0652,0.0726,0.078,0.0774,0.0831,0.0877,0.0945,0.0995,0.1052,0.1134,0.1201,0.1243,0.131,0.135,0.1352,0.1367,0.1365,0.1373,0.1275,0.1255,0.1364,0.1364,0.1364,0.1364,0.1364,0.1364,0.0426,0.0478,0.0535,0.0604,0.0646,0.0695,0.0747,0.078,0.0842,0.0916,0.0926,0.1004,0.1057,0.1148,0.1182,0.1242,0.1229,0.1251,0.1258,0.1263,0.1267,0.1124,0.1254,0.1254,0.1254,0.1254,0.1253,0,0.0339,0.0352,0.0415,0.0482,0.0534,0.0588,0.0642,0.0674,0.0707,0.0756,0.0829,0.0874,0.0962,0.1033,0.11,0.1132,0.1133,0.1134,0.1151,0.1148,0.1136,0.1144,0.0985,0.1132,0.1131,0.113,0.1129,0.1129,0.0213,0.0273,0.0341,0.0383,0.0417,0.0484,0.0527,0.0552,0.0596,0.0665,0.0709,0.078,0.0839,0.0951,0.0989,0.1055,0.1056,0.111,0.1066,0.106,0.1058,0.1055,0.1061,0.1119,0.112,0.1121,0.1122,0,0.0141,0.0173,0.0271,0.0334,0.0351,0.0412,0.0465,0.0518,0.0545,0.0621,0.064,0.0683,0.0754,0.0783,0.087,0.0884,0.098,0.0979,0.0962,0.0964,0.1015,0.1011,0.1177,0.12,0.1067,0.1068,0.1069,0,0.0047,0.0124,0.0167,0.0223,0.0308,0.0333,0.0416,0.0448,0.0497,0.0557,0.0563,0.0619,0.0649,0.0709,0.0729,0.0813,0.083,0.0845,0.085,0.0846,0.0844,0.0872,0.0867,0.0858,0.0857,0.0856,0.0855,0,-0.0069,0.0045,0.0135,0.0167,0.0243,0.0284,0.0317,0.0372,0.0415,0.0474,0.0502,0.057,0.0607,0.0658,0.0684,0.0653,0.0787,0.0751,0.0804,0.0803,0.0834,0.0833,0.097,0.0854,0.0854,0.0854,0.0853,0,-0.0138,-0.0076,0.0049,0.0113,0.0142,0.0201,0.027,0.0328,0.0386,0.0403,0.045,0.0459,0.0535,0.0496,0.0602,0.0555,0.0591,0.0613,0.0617,0.0628,0.0585,0.066,0.0787,0.0802,0.0634,0.0632,0.0631,0,-0.028,-0.0143,-0.012,-0.0001,0.0067,0.007,0.0136,0.0188,0.0216,0.0277,0.0308,0.0377,0.0355,0.0381,0.0429,0.0464,0.0525,0.0456,0.0542,0.0545,0.0528,0.0645,0.0658,0.0755,0.0608,0.061,0.0612,0,-0.0384,-0.029,-0.027,-0.0233,-0.0158,-0.0101,-0.0026,0.0049,0.0088,0.0146,0.021,0.0307,0.0294,0.0338,0.0353,0.0401,0.0484,0.0382,0.0384,0.04,0.0599,0.061,0.0626,0.0483,0.0485,0.0488,0.0593,0,-0.0495,-0.0422,-0.0367,-0.0283,-0.0234,-0.0157,-0.0122,-0.0076,-0.0066,-0.0036,0.0058,0.011,0.0187,0.0213,0.0224,0.0326,0.0314,0.03,0.0267,0.0343,0.0379,0.0393,0.0211,0.021,0.0209,0.0209,0,0,-0.0638,-0.0531,-0.0506,-0.043,-0.0387,-0.0382,-0.0303,-0.0261,-0.0174,-0.0145,-0.0164,-0.0018,0.0026,0.0137,0.0164,0.0195,0.0216,0.0189,0.0306,0.0317,0.0327,0.0365,0.0379,0.0208,0.0207,0.0207,0.0207,0,-0.067,-0.0624,-0.0546,-0.05,-0.0432,-0.0403,-0.0385,-0.0316,-0.0293,-0.0199,-0.0196,-0.0135,-0.0018,0.0028,0.0067,0.0176,0.0175,0.0196,0.0243,0.0299,0.031,0.032,0.036,0.0373,0.0205,0.0205,0.0205,0,-0.0765,-0.0714,-0.0672,-0.0572,-0.0527,-0.0457,-0.0483,-0.0408,-0.0356,-0.0353,-0.0259,-0.0225,-0.0161,-0.006,-0.0013,-0.0028,0.0136,0.0091,0.0096,0.0103,0.0158,0.0172,0.0184,0.0022,0.0021,0.002,0,0,-0.0798,-0.0729,-0.0664,-0.0576,-0.0548,-0.0504,-0.0462,-0.0447,-0.0388,-0.0364,-0.0319,-0.0263,-0.0195,-0.015,-0.0084,0.0022,0.0038,0.0067,0.0076,0.0083,0.0093,0.015,0.0164,0.0017,0.0017,0.0017,0,0,-0.0813,-0.0735,-0.0734,-0.0627,-0.0571,-0.0501,-0.0449,-0.0447,-0.0383,-0.0387,-0.0358,-0.0342,-0.0247,-0.0213,-0.0257,-0.0095,-0.0129,-0.0117,-0.012,-0.0108,-0.01,-0.0109,-0.0275,0,0,0,0,0,-0.0826,-0.0745,-0.0745,-0.0722,-0.0594,-0.0501,-0.0485,-0.0458,-0.0483,-0.0443,-0.0405,-0.0408,-0.0231,-0.0269,-0.0246,-0.0196,-0.0021,-0.0014,-0.0008,0.0014,0.0026,0.0036,0,0,0,0,0,0,-0.0817,-0.0788,-0.0747,-0.0675,-0.0646,-0.0504,-0.054,-0.0531,-0.0487,-0.0489,-0.0415,-0.0406,-0.0381,-0.0279,-0.0259,-0.0212,-0.0282,-0.0018,-0.0012,-0.0007,0.0018,0.0028,0.0036,0,0,0,0,0,-0.0809,-0.0786,-0.0588,-0.0676,-0.065,-0.0596,-0.0543,-0.0535,-0.0501,-0.0441,-0.0432,-0.0485,-0.0381,-0.0362,-0.0267,-0.0222,-0.0295,-0.0288,-0.0014,-0.001,-0.0006,0.0023,0,0,0,0,0,0,-0.0803,-0.0778,-0.0582,-0.0573,-0.0703,-0.0603,-0.0586,-0.0539,-0.0456,-0.0446,-0.051,-0.0512,-0.0379,-0.0365,-0.0351,-0.0227,-0.0306,-0.0299,-0.0294,-0.0011,-0.0007,-0.0004,0,0,0,0,0,0,-0.079,-0.0771,-0.0578,-0.0614,-0.061,-0.061,-0.0595,-0.051,-0.0455,-0.0529,-0.0528,-0.0512,-0.0401,-0.0367,-0.0356,-0.0224,-0.0315,-0.0308,-0.0303,-0.03,-0.0008,-0.0005,0,0,0,0,0,0,-0.0782,-0.0765,-0.0616,-0.0613,-0.0609,-0.051,-0.0534,-0.0405,-0.0486,-0.0533,-0.0493,-0.0496,-0.0403,-0.0391,-0.0359,-0.0232,-0.0226,-0.0315,-0.031,-0.0306,-0.0304,0,0,0,0,0,0,0,-0.0775,-0.0894,-0.0633,-0.0612,-0.0608,-0.0494,-0.0492,-0.0489,-0.0487,-0.0489,-0.0492,-0.0494,-0.0356,-0.0348,-0.034,-0.0238,0,0,-0.0315,-0.0312,0,0,0,0,0,0,0,0,-0.09,-0.0895,-0.0633,-0.0631,-0.0629,-0.0494,-0.0492,-0.049,-0.0487,-0.0489,-0.0491,-0.0493,-0.0354,-0.0347,-0.0341,0,0,0,0,0,0,0,0,0,0,0,0,0,0,0,-0.0633,-0.0631,0,-0.0493,-0.0492,-0.049,-0.0487,-0.0489,-0.0491,-0.0493,-0.0352,-0.0347,-0.0341,0,0,0,0,0,0,0,0,0,0,0,0,0,0,0,0,0,0,0,0,0,0,0,0,0,0,0,0,0,0,0,0,0,0,0,0,0,0,0,0,0,0,0,0,0,0,0,0,0,0,0,0,0,0,0,0,0,0,0,0,0,0,0,0,0,0,0,0,0]}]]]